• In Russia
  • List of Countries
  • For 7 days
  • Water Temperature
  • Satellite Maps
  • Weather Map
  • Weather Widgets
  • user-avatar
    Login

    Hourly Weather Pecel

    Today, 13 December, Wednesday

    Time Temperature Precipitation Wind Pressure Humidity
    00:00 +4°C° 0.6 mm 4 mps 740 mmHg 76%
    01:00 +3°C° 0 mm 6 mps 740 mmHg 73%
    02:00 +3°C° 0.3 mm 5 mps 741 mmHg 72%
    03:00 +2°C° 0.3 mm 5 mps 741 mmHg 71%
    04:00 +3°C° 0.3 mm 4 mps 741 mmHg 70%
    05:00 +3°C° 0.1 mm 4 mps 741 mmHg 70%
    06:00 +3°C° 0.1 mm 4 mps 741 mmHg 71%
    07:00 +3°C° 0.1 mm 4 mps 742 mmHg 72%
    08:00 +3°C° 0.1 mm 3 mps 742 mmHg 71%
    09:00 +3°C° 0.1 mm 3 mps 742 mmHg 70%
    10:00 +3°C° 0.1 mm 3 mps 742 mmHg 69%
    11:00 +3°C° 0 mm 3 mps 742 mmHg 68%
    12:00 +5°C° 0 mm 2 mps 742 mmHg 66%
    13:00 +5°C° 0 mm 2 mps 742 mmHg 65%
    14:00 +4°C° 0 mm 2 mps 741 mmHg 67%
    15:00 +5°C° 0 mm 1 mps 741 mmHg 69%
    16:00 +4°C° 0 mm 1 mps 741 mmHg 72%
    17:00 +4°C° 0 mm 1 mps 740 mmHg 73%
    18:00 +3°C° 0 mm 1 mps 740 mmHg 74%
    19:00 +3°C° 0 mm 1 mps 740 mmHg 75%
    20:00 +3°C° 0 mm 1 mps 739 mmHg 76%
    21:00 +2°C° 0 mm 1 mps 739 mmHg 77%
    22:00 +1°C° 0 mm 2 mps 739 mmHg 78%
    23:00 +1°C° 0 mm 2 mps 738 mmHg 79%

    Tomorrow, 14 December, Thursday

    Time Temperature Precipitation Wind Pressure Humidity
    00:00 +1°C° 0 mm 2 mps 737 mmHg 80%
    01:00 0°C° 0 mm 3 mps 737 mmHg 82%
    02:00 0°C° 0 mm 3 mps 736 mmHg 84%
    03:00 -1°C° 0 mm 4 mps 735 mmHg 86%
    04:00 -1°C° 0 mm 4 mps 735 mmHg 88%
    05:00 -1°C° 0 mm 4 mps 734 mmHg 88%
    06:00 0°C° 0 mm 5 mps 734 mmHg 87%
    07:00 +1°C° 0 mm 5 mps 733 mmHg 86%
    08:00 +1°C° 0 mm 5 mps 733 mmHg 83%
    09:00 +2°C° 0 mm 5 mps 733 mmHg 80%
    10:00 +3°C° 0 mm 5 mps 733 mmHg 77%
    11:00 +4°C° 0.2 mm 4 mps 734 mmHg 78%
    12:00 +5°C° 0.2 mm 4 mps 734 mmHg 78%
    13:00 +5°C° 0.2 mm 4 mps 734 mmHg 79%
    14:00 +5°C° 0.3 mm 4 mps 734 mmHg 77%
    15:00 +5°C° 0.3 mm 3 mps 734 mmHg 75%
    16:00 +4°C° 0.3 mm 3 mps 735 mmHg 72%
    17:00 +5°C° 0 mm 2 mps 735 mmHg 70%
    18:00 +5°C° 0 mm 2 mps 735 mmHg 68%
    19:00 +4°C° 0 mm 2 mps 735 mmHg 66%
    20:00 +4°C° 0.3 mm 2 mps 735 mmHg 68%
    21:00 +4°C° 0.3 mm 2 mps 735 mmHg 71%
    22:00 +3°C° 0.3 mm 2 mps 735 mmHg 74%
    23:00 +3°C° 0.3 mm 2 mps 734 mmHg 76%

    Day after tomorrow, 15 December, Friday

    Time Temperature Precipitation Wind Pressure Humidity
    00:00 +2°C° 0.3 mm 3 mps 733 mmHg 79%
    01:00 +2°C° 0.3 mm 3 mps 733 mmHg 82%
    02:00 +2°C° 0 mm 3 mps 732 mmHg 84%
    03:00 +1°C° 0 mm 4 mps 731 mmHg 86%
    04:00 +3°C° 0 mm 4 mps 730 mmHg 88%
    05:00 +3°C° 0 mm 4 mps 730 mmHg 89%
    06:00 +4°C° 0 mm 3 mps 730 mmHg 90%
    07:00 +4°C° 0 mm 3 mps 730 mmHg 91%
    08:00 +5°C° 0.5 mm 3 mps 730 mmHg 90%
    09:00 +5°C° 0.5 mm 3 mps 730 mmHg 90%
    10:00 +6°C° 0.5 mm 4 mps 730 mmHg 89%
    11:00 +6°C° 0.9 mm 4 mps 730 mmHg 87%
    12:00 +5°C° 0.9 mm 4 mps 730 mmHg 86%
    13:00 +5°C° 0.9 mm 4 mps 730 mmHg 85%
    14:00 +4°C° 0.1 mm 3 mps 730 mmHg 84%
    15:00 +4°C° 0.1 mm 3 mps 730 mmHg 82%
    16:00 +5°C° 0.1 mm 2 mps 730 mmHg 81%
    17:00 +4°C° 0.7 mm 2 mps 730 mmHg 82%
    18:00 +4°C° 0.7 mm 2 mps 730 mmHg 83%
    19:00 +4°C° 0.7 mm 2 mps 730 mmHg 84%
    20:00 +4°C° 1.8 mm 2 mps 729 mmHg 83%
    21:00 +3°C° 1.8 mm 3 mps 729 mmHg 83%
    22:00 +1°C° 1.8 mm 4 mps 728 mmHg 82%
    23:00 +1°C° 1.5 mm 4 mps 728 mmHg 83%

    16 December, Saturday

    Time Temperature Precipitation Wind Pressure Humidity
    00:00 +1°C° 1.5 mm 4 mps 728 mmHg 85%
    01:00 +1°C° 1.5 mm 4 mps 728 mmHg 86%
    02:00 +1°C° 0.2 mm 4 mps 728 mmHg 85%
    03:00 +2°C° 0.2 mm 3 mps 728 mmHg 85%
    04:00 +1°C° 0.2 mm 3 mps 728 mmHg 84%
    05:00 +1°C° 0.1 mm 3 mps 729 mmHg 85%
    06:00 +1°C° 0.1 mm 3 mps 729 mmHg 85%
    07:00 +1°C° 0.1 mm 3 mps 730 mmHg 85%
    08:00 +1°C° 0.2 mm 3 mps 731 mmHg 84%
    09:00 +1°C° 0.2 mm 3 mps 731 mmHg 82%
    10:00 +2°C° 0.2 mm 3 mps 732 mmHg 80%
    11:00 +2°C° 0 mm 3 mps 733 mmHg 79%
    12:00 +1°C° 0 mm 4 mps 733 mmHg 77%
    13:00 +3°C° 0 mm 4 mps 734 mmHg 75%
    14:00 +1°C° 0 mm 4 mps 734 mmHg 78%
    15:00 +2°C° 0 mm 3 mps 735 mmHg 80%
    16:00 +1°C° 0 mm 3 mps 735 mmHg 82%
    17:00 +1°C° 0 mm 3 mps 736 mmHg 83%
    18:00 0°C° 0 mm 3 mps 736 mmHg 83%
    19:00 0°C° 0 mm 3 mps 737 mmHg 83%
    20:00 0°C° 0 mm 3 mps 737 mmHg 83%
    21:00 0°C° 0 mm 3 mps 738 mmHg 82%
    22:00 -1°C° 0 mm 4 mps 738 mmHg 82%
    23:00 -2°C° 0 mm 4 mps 738 mmHg 82%

    17 December, Sunday

    Time Temperature Precipitation Wind Pressure Humidity
    00:00 -2°C° 0 mm 4 mps 738 mmHg 83%
    01:00 -2°C° 0 mm 4 mps 738 mmHg 83%
    02:00 -2°C° 0 mm 4 mps 739 mmHg 83%
    03:00 -2°C° 0 mm 4 mps 739 mmHg 82%
    04:00 -2°C° 0 mm 4 mps 739 mmHg 82%
    05:00 -2°C° 0 mm 4 mps 739 mmHg 82%
    06:00 -3°C° 0 mm 4 mps 740 mmHg 82%
    07:00 -3°C° 0 mm 4 mps 740 mmHg 82%
    08:00 -2°C° 0 mm 4 mps 741 mmHg 79%
    09:00 -1°C° 0 mm 5 mps 741 mmHg 76%
    10:00 0°C° 0 mm 5 mps 741 mmHg 73%
    11:00 0°C° 0 mm 5 mps 742 mmHg 72%
    12:00 +1°C° 0 mm 5 mps 742 mmHg 70%
    13:00 +1°C° 0 mm 5 mps 742 mmHg 69%
    14:00 0°C° 0 mm 5 mps 742 mmHg 72%
    15:00 0°C° 0 mm 4 mps 743 mmHg 75%
    16:00 -1°C° 0 mm 4 mps 743 mmHg 78%
    17:00 -1°C° 0 mm 4 mps 744 mmHg 79%
    18:00 -2°C° 0 mm 4 mps 744 mmHg 80%
    19:00 -2°C° 0 mm 4 mps 745 mmHg 80%
    20:00 -2°C° 0 mm 4 mps 745 mmHg 81%
    21:00 -2°C° 0 mm 3 mps 745 mmHg 82%
    22:00 -2°C° 0 mm 3 mps 746 mmHg 83%
    23:00 -2°C° 0 mm 3 mps 746 mmHg 83%

    18 December, Monday

    Time Temperature Precipitation Wind Pressure Humidity
    00:00 -2°C° 0 mm 3 mps 746 mmHg 83%
    01:00 -2°C° 0 mm 3 mps 746 mmHg 83%
    02:00 -2°C° 0 mm 3 mps 747 mmHg 83%
    03:00 -4°C° 0 mm 3 mps 747 mmHg 82%
    04:00 -4°C° 0 mm 3 mps 747 mmHg 81%
    05:00 -4°C° 0 mm 3 mps 747 mmHg 81%
    06:00 -4°C° 0 mm 3 mps 747 mmHg 81%
    07:00 -4°C° 0 mm 3 mps 747 mmHg 80%
    08:00 -2°C° 0 mm 3 mps 748 mmHg 77%
    09:00 -2°C° 0 mm 3 mps 748 mmHg 74%
    10:00 -1°C° 0 mm 3 mps 748 mmHg 71%
    11:00 0°C° 0 mm 3 mps 748 mmHg 69%
    12:00 0°C° 0 mm 3 mps 747 mmHg 67%
    13:00 +1°C° 0 mm 3 mps 747 mmHg 65%
    14:00 0°C° 0 mm 3 mps 747 mmHg 70%
    15:00 -1°C° 0 mm 2 mps 747 mmHg 75%
    16:00 0°C° 0 mm 1 mps 746 mmHg 79%
    17:00 0°C° 0 mm 1 mps 746 mmHg 81%
    18:00 0°C° 0 mm 1 mps 746 mmHg 83%
    19:00 -1°C° 0 mm 1 mps 746 mmHg 85%
    20:00 -1°C° 0 mm 1 mps 747 mmHg 85%
    21:00 -2°C° 0 mm 0 mps 747 mmHg 86%
    22:00 -2°C° 0 mm 0 mps 747 mmHg 86%
    23:00 -2°C° 0 mm 0 mps 747 mmHg 86%
    Show more